Wind_Speed
69 67 65 63 61 59 56 55 54 53 52 48 50 48 48 40 36 33 39 37 35 41 41 47 46 40 43 48 47 41 43 44 47 46 46 51 51 47 51 43 43 46 49 52
70 68 66 65 62 59 58 57 55 56 54 56 49 45 45 54 50 47 35 41 38 38 44 50 51 43 40 41 44 43 40 46 49 50 51 54 55 50 51 55 44 45 53 52
72 71 69 68 67 62 62 58 58 61 60 53 49 48 45 48 54 53 47 39 46 40 44 52 53 50 47 41 43 48 48 50 49 50 56 59 56 55 56 54 51 48 55 50
74 73 72 70 72 70 69 66 62 62 58 55 47 49 48 45 48 54 49 48 42 40 41 41 42 51 47 48 44 48 52 55 51 54 55 53 58 61 60 54 53 51 46 48
74 73 73 73 76 77 74 68 63 65 62 53 52 54 47 45 43 45 40 50 53 46 47 47 41 46 50 49 45 49 52 55 53 56 55 61 63 60 51 52 50 49 46 49
71 72 73 70 77 80 75 69 64 64 61 56 56 50 42 45 45 48 44 42 54 58 51 43 50 49 50 56 52 53 50 52 56 59 58 56 61 48 50 45 39 42 47 45
73 71 71 71 71 72 73 72 66 65 61 58 51 48 48 46 44 44 47 43 45 53 48 44 48 49 52 56 57 55 53 55 57 61 55 56 51 49 48 42 37 43 45 48
71 70 71 71 69 66 68 69 69 66 62 58 54 54 51 46 47 47 48 44 36 45 47 47 49 50 54 52 52 52 53 57 57 53 51 49 46 43 45 44 44 46 48 50
70 70 69 71 69 67 67 66 68 67 63 58 53 51 53 50 47 47 48 44 44 44 40 41 47 50 49 51 51 54 57 53 51 51 48 48 47 46 43 44 50 51 52 55
70 70 71 72 69 69 69 68 68 67 63 58 55 54 54 50 48 42 50 50 45 44 41 45 47 46 47 49 47 48 45 42 41 39 42 43 43 45 48 50 53 55 57 61
66 68 69 70 71 70 72 70 70 67 63 60 60 58 58 55 45 36 38 37 40 40 45 50 52 51 47 47 40 42 39 37 36 37 41 43 45 48 50 53 55 58 62 65
67 66 67 68 71 71 72 72 69 67 65 58 55 58 58 55 49 46 52 46 46 45 40 37 36 41 34 30 30 30 32 29 36 40 44 46 48 50 51 53 58 62 64 62
69 66 65 66 68 69 72 71 68 67 62 58 60 57 57 52 44 45 45 40 46 40 30 30 28 29 27 24 24 25 28 35 40 42 46 49 51 52 54 58 62 60 59 58
61 62 62 62 63 66 67 69 66 69 66 66 64 63 63 53 50 44 34 42 37 34 33 28 26 25 30 30 31 30 31 37 43 45 48 48 50 53 56 55 55 56 56 55
59 63 64 64 62 61 60 61 64 66 69 69 65 67 65 57 47 46 35 38 43 39 36 38 41 40 34 30 31 33 37 40 42 45 46 48 50 49 50 50 50 51 54 57
44 45 44 45 50 56 64 68 69 69 71 69 72 68 63 66 63 40 39 33 32 34 35 33 37 34 32 33 34 36 38 39 42 43 46 47 45 45 47 47 50 54 58 62
45 45 50 52 55 55 57 66 69 71 69 75 77 72 59 58 46 34 29 27 31 30 30 30 32 36 34 34 36 35 39 40 42 43 41 42 43 44 47 51 54 58 60 63
48 49 51 52 53 52 55 58 66 75 80 79 76 69 49 54 33 28 30 30 29 29 32 33 35 33 32 34 35 35 39 40 38 39 39 38 41 46 49 52 55 57 60 64
48 48 46 45 46 48 44 43 56 64 73 75 73 54 44 38 22 21 22 24 25 27 31 27 27 28 32 33 34 35 34 31 34 33 36 39 43 46 48 51 55 58 62 65
40 43 48 48 42 43 36 45 55 63 68 69 70 55 46 30 29 32 32 32 34 34 33 31 30 32 29 33 33 28 28 30 31 34 37 40 42 45 49 54 57 60 63 65
42 42 41 40 37 40 35 46 55 65 62 68 60 44 36 34 29 27 26 26 28 29 32 32 31 28 29 28 24 28 26 28 31 33 34 38 43 48 52 55 57 60 62 64
42 38 30 41 42 39 45 49 61 61 60 49 44 36 33 28 24 23 25 26 27 31 28 31 28 23 23 22 23 23 27 29 28 31 37 43 46 50 53 53 56 59 62 64
33 28 36 46 48 51 48 67 57 49 42 36 35 32 30 30 28 24 24 28 28 26 28 25 20 23 19 19 20 23 24 25 30 35 39 43 46 49 51 54 58 60 62 63
30 37 54 55 53 54 53 49 47 40 35 34 31 30 29 28 30 28 28 28 28 28 22 18 19 15 15 17 19 21 25 30 34 37 40 43 46 49 51 54 56 59 60 62
35 48 49 51 48 44 41 38 37 37 34 29 29 29 27 28 32 31 29 29 24 17 14 14 12 12 15 16 19 25 30 33 35 36 39 42 47 48 50 52 55 58 60 61
43 49 45 38 36 41 36 34 35 29 26 27 27 28 32 32 32 31 24 16 15 15 10 9 10 13 18 22 25 28 31 32 33 36 39 43 46 46 48 51 54 57 58 59
52 51 47 32 38 35 36 30 24 24 27 28 28 31 31 26 22 16 16 16 10 8 8 8 14 18 22 24 26 28 29 31 34 37 38 43 43 44 47 50 53 56 57 58
Wind_Direction
241 242 240 238 239 238 237 235 235 239 241 242 233 245 238 242 250 245 249 240 252 255 253 243 246 253 257 259 262 263 270 273 273 278 283 282 286 295 302 304 291 286 282 280
240 240 240 239 236 235 235 234 235 235 239 243 245 247 245 243 246 240 252 244 243 259 262 257 258 255 253 267 273 270 268 265 271 277 281 281 288 294 294 298 283 267 271 279
237 237 236 236 235 231 229 229 230 232 234 235 239 242 238 241 239 241 254 255 245 255 256 254 259 254 257 257 264 270 272 270 273 279 285 287 290 294 293 292 283 277 272 283
234 234 235 233 232 229 228 228 230 233 235 238 237 241 242 240 243 246 247 250 246 256 260 258 264 258 256 257 260 266 268 272 276 282 285 289 292 293 300 294 288 276 279 280
235 232 233 233 231 228 229 230 231 232 233 235 238 241 241 244 241 248 248 245 251 258 268 264 257 261 256 256 258 261 266 273 277 281 286 290 295 296 297 289 287 285 281 281
234 234 233 232 231 230 231 231 231 230 230 234 239 241 244 247 249 250 251 251 250 251 260 252 258 263 260 258 260 269 268 270 276 280 290 294 288 300 290 284 280 282 283 286
232 231 231 230 230 232 231 230 233 235 233 235 241 241 240 244 253 254 247 253 254 247 254 258 265 274 258 258 262 267 269 273 276 285 294 288 297 298 293 297 294 292 294 293
228 227 226 227 228 227 225 226 230 232 230 234 236 237 241 242 247 249 247 253 248 241 248 256 272 271 264 259 261 267 271 275 283 291 295 291 291 290 291 295 296 296 294 294
227 227 227 225 226 225 223 224 228 229 232 234 234 235 239 244 251 257 249 247 250 251 248 261 261 265 265 260 264 268 271 279 286 292 292 288 292 290 291 296 296 295 293 295
225 226 227 226 227 228 226 225 226 228 232 234 235 235 238 244 253 254 247 244 255 261 255 258 264 269 268 269 276 277 279 286 285 285 286 284 283 287 290 294 292 291 293 295
221 222 223 224 224 224 224 224 226 230 232 232 234 234 234 237 243 242 243 254 246 252 260 264 267 270 274 275 278 279 281 280 284 290 289 287 287 289 291 290 291 293 294 296
220 220 221 221 222 222 223 224 227 229 230 227 231 230 230 234 240 249 249 261 254 255 262 264 270 271 279 276 271 275 276 278 285 287 287 286 287 289 289 291 292 293 297 304
220 220 220 220 221 223 225 225 225 225 225 227 228 227 232 229 226 247 258 247 250 252 257 275 277 279 269 266 273 267 274 288 289 288 289 288 288 290 292 289 292 301 306 304
215 217 218 219 221 222 224 223 223 223 224 224 224 228 229 224 234 242 246 246 249 250 263 271 275 272 278 275 276 276 277 285 286 286 284 285 287 289 295 305 309 305 305 306
205 206 207 208 210 212 216 216 217 219 219 218 222 224 226 223 227 232 248 249 244 248 262 270 277 280 279 275 276 276 280 280 280 281 283 285 291 303 307 303 303 305 305 307
187 192 195 200 204 209 208 207 208 208 211 212 217 221 223 225 225 237 242 244 248 254 264 267 270 268 270 273 273 277 278 279 278 280 284 294 308 303 304 306 307 310 310 309
182 185 188 194 203 208 208 207 205 203 205 208 211 216 216 225 226 233 243 249 251 254 263 259 263 268 266 265 270 274 275 277 280 287 307 307 306 309 310 312 312 310 309 310
183 187 194 200 206 209 208 202 201 203 204 205 210 207 203 213 224 231 239 243 249 251 258 262 265 262 259 262 265 270 274 281 302 308 306 309 310 311 311 310 309 310 312 313
184 188 193 192 190 186 181 191 203 203 204 205 201 194 194 209 207 224 236 239 236 255 249 251 263 264 260 264 269 272 289 303 302 308 309 310 309 307 310 312 314 315 316 316
176 179 181 181 181 176 182 188 191 201 204 206 203 200 211 223 230 237 239 244 252 249 245 262 265 263 263 267 277 299 298 303 305 306 307 305 307 313 315 317 318 318 320 320
168 172 177 174 170 159 168 185 192 196 196 203 200 206 217 225 228 232 238 249 249 245 248 255 258 261 269 284 298 295 299 300 301 300 304 312 317 320 320 321 322 323 324 326
165 169 171 173 163 169 174 189 185 191 199 196 199 207 213 215 226 235 239 242 242 242 247 250 260 275 282 292 290 297 294 295 303 315 318 321 321 322 322 324 326 329 331 331
154 163 174 163 170 172 179 185 183 188 181 189 196 195 203 211 225 242 244 236 240 245 250 265 276 279 280 282 284 288 297 312 321 320 320 318 321 325 327 330 333 334 335 335
163 173 168 169 171 177 182 184 186 186 191 191 200 206 211 217 231 237 231 236 242 250 262 264 265 266 276 285 294 309 319 321 323 322 319 322 328 329 331 334 336 336 337 337
168 163 167 171 171 171 171 175 185 192 198 201 205 208 216 224 227 224 231 239 247 260 254 256 257 278 288 305 319 319 321 324 322 321 326 329 331 332 335 337 338 339 340 340
169 169 174 170 170 172 180 183 186 185 194 202 201 201 205 206 216 224 235 248 248 235 238 263 285 300 316 317 318 322 321 319 324 328 329 332 333 334 336 338 340 342 343 343
168 173 172 171 178 181 179 182 190 194 190 190 191 196 205 215 226 230 231 213 225 233 258 289 313 314 314 319 321 321 320 325 329 330 331 333 334 335 338 341 344 345 346 347
Height
5586 5595 5604 5611 5618 5626 5635 5643 5651 5658 5660 5667 5676 5690 5693 5702 5707 5712 5713 5720 5724 5725 5731 5734 5734 5739 5742 5741 5744 5749 5749 5746 5745 5748 5749 5746 5746 5744 5739 5734 5730 5726 5721 5714
5569 5578 5587 5594 5603 5613 5622 5630 5641 5644 5648 5655 5671 5680 5688 5691 5699 5701 5706 5707 5716 5719 5721 5723 5725 5731 5734 5732 5732 5734 5741 5737 5735 5735 5737 5735 5732 5734 5730 5723 5720 5714 5712 5708
5552 5562 5571 5580 5587 5598 5607 5615 5623 5629 5634 5651 5662 5669 5675 5678 5685 5693 5696 5701 5703 5709 5712 5716 5717 5719 5723 5725 5725 5723 5724 5725 5727 5726 5726 5722 5719 5719 5716 5713 5705 5705 5698 5702
5534 5546 5555 5563 5571 5579 5589 5600 5612 5619 5625 5636 5649 5652 5665 5673 5677 5683 5686 5692 5696 5700 5705 5707 5707 5710 5713 5716 5717 5715 5713 5712 5714 5715 5712 5711 5706 5701 5701 5697 5694 5687 5693 5688
5517 5528 5537 5544 5552 5560 5572 5589 5601 5607 5618 5629 5636 5641 5655 5664 5671 5670 5678 5680 5686 5688 5692 5697 5699 5701 5704 5703 5703 5704 5706 5702 5701 5699 5703 5700 5691 5691 5690 5683 5679 5677 5678 5676
5497 5508 5518 5525 5532 5543 5562 5578 5589 5596 5607 5616 5622 5637 5652 5656 5655 5661 5669 5673 5675 5675 5683 5687 5691 5693 5694 5694 5694 5695 5695 5694 5691 5687 5692 5686 5675 5685 5676 5672 5672 5667 5663 5662
5478 5488 5498 5507 5517 5535 5553 5567 5576 5585 5599 5604 5619 5630 5635 5643 5646 5651 5656 5661 5664 5669 5674 5676 5678 5681 5682 5682 5685 5686 5684 5684 5682 5678 5678 5666 5671 5665 5659 5660 5659 5654 5650 5646
5461 5471 5480 5491 5506 5523 5538 5550 5558 5570 5585 5597 5609 5618 5626 5632 5636 5640 5643 5648 5653 5658 5662 5665 5666 5668 5670 5673 5672 5673 5676 5674 5671 5667 5666 5657 5658 5656 5651 5649 5647 5643 5638 5633
5444 5454 5465 5480 5494 5509 5524 5537 5547 5559 5573 5588 5598 5606 5615 5622 5626 5629 5633 5638 5642 5649 5653 5655 5656 5657 5660 5659 5662 5665 5664 5663 5662 5659 5654 5646 5645 5642 5643 5640 5634 5631 5625 5621
5427 5439 5452 5467 5480 5495 5511 5525 5536 5546 5563 5577 5586 5596 5605 5612 5616 5617 5621 5629 5634 5640 5645 5647 5648 5649 5650 5647 5651 5653 5653 5652 5650 5648 5643 5640 5637 5634 5631 5628 5626 5617 5612 5606
5413 5426 5439 5452 5467 5481 5496 5513 5523 5538 5554 5566 5573 5583 5593 5602 5607 5609 5616 5624 5624 5631 5636 5637 5638 5639 5639 5639 5642 5642 5641 5641 5638 5637 5633 5630 5628 5625 5621 5615 5609 5604 5598 5592
5400 5413 5426 5441 5455 5469 5481 5498 5514 5528 5540 5554 5563 5572 5582 5591 5600 5604 5607 5614 5619 5623 5625 5628 5630 5628 5629 5632 5631 5631 5628 5631 5630 5629 5624 5619 5617 5612 5607 5602 5596 5591 5584 5576
5387 5400 5414 5428 5442 5456 5472 5488 5502 5514 5531 5544 5552 5563 5572 5584 5592 5595 5600 5606 5611 5615 5620 5621 5619 5620 5622 5622 5622 5622 5621 5619 5617 5617 5613 5608 5604 5598 5594 5589 5583 5577 5570 5563
5375 5388 5403 5417 5431 5445 5459 5478 5494 5504 5521 5530 5544 5554 5562 5575 5584 5591 5593 5598 5603 5608 5611 5611 5612 5614 5615 5613 5611 5612 5612 5610 5607 5605 5601 5597 5591 5585 5580 5574 5569 5562 5555 5547
5366 5379 5393 5406 5421 5435 5450 5465 5480 5496 5510 5521 5536 5544 5555 5567 5577 5581 5585 5591 5596 5600 5601 5603 5604 5605 5605 5603 5603 5601 5601 5599 5597 5594 5590 5586 5580 5574 5569 5564 5558 5551 5543 5535
5363 5376 5390 5402 5415 5424 5438 5451 5465 5481 5494 5515 5522 5535 5549 5557 5567 5573 5579 5582 5586 5590 5592 5594 5595 5596 5597 5594 5593 5592 5590 5588 5587 5583 5578 5572 5570 5565 5560 5555 5547 5537 5527 5519
5364 5377 5390 5402 5411 5419 5431 5446 5465 5480 5494 5503 5514 5527 5542 5552 5562 5566 5570 5574 5578 5582 5583 5585 5586 5587 5587 5585 5583 5584 5579 5578 5575 5571 5569 5565 5560 5555 5548 5540 5532 5524 5514 5503
5365 5377 5388 5399 5408 5417 5426 5446 5462 5473 5484 5497 5510 5524 5539 5548 5554 5556 5563 5567 5571 5574 5576 5577 5577 5577 5576 5575 5574 5575 5572 5568 5565 5562 5560 5556 5550 5543 5537 5531 5522 5512 5501 5490
5365 5376 5387 5395 5404 5417 5434 5450 5458 5470 5482 5492 5505 5520 5531 5540 5543 5551 5557 5561 5564 5566 5567 5569 5569 5568 5567 5566 5566 5568 5564 5561 5559 5556 5551 5546 5540 5534 5527 5517 5508 5497 5486 5474
5365 5376 5386 5398 5411 5427 5437 5448 5459 5467 5475 5489 5501 5514 5525 5534 5542 5546 5552 5554 5556 5557 5561 5560 5560 5559 5560 5559 5560 5559 5555 5553 5551 5548 5544 5538 5530 5522 5513 5504 5494 5482 5470 5457
5368 5378 5389 5402 5414 5425 5435 5446 5453 5462 5474 5485 5501 5514 5523 5530 5536 5540 5544 5546 5548 5550 5553 5553 5552 5553 5553 5552 5553 5550 5549 5547 5544 5540 5534 5526 5519 5510 5500 5489 5479 5467 5455 5441
5377 5386 5396 5407 5415 5426 5435 5442 5453 5463 5475 5488 5501 5511 5518 5525 5530 5533 5537 5539 5541 5540 5545 5544 5545 5548 5547 5548 5545 5544 5542 5540 5534 5527 5520 5513 5505 5497 5487 5476 5465 5453 5439 5426
5379 5387 5395 5406 5415 5424 5433 5441 5453 5461 5475 5488 5498 5506 5513 5518 5524 5528 5530 5531 5534 5536 5536 5539 5542 5541 5541 5540 5539 5538 5533 5526 5522 5518 5510 5503 5495 5485 5475 5464 5451 5439 5427 5414
5381 5389 5399 5409 5417 5423 5433 5446 5461 5473 5482 5490 5497 5503 5508 5515 5519 5522 5523 5526 5529 5530 5534 5536 5535 5535 5534 5533 5531 5526 5521 5519 5514 5507 5500 5491 5483 5474 5464 5452 5442 5430 5417 5404
5387 5395 5404 5412 5423 5433 5444 5456 5466 5472 5479 5486 5492 5499 5505 5511 5512 5516 5520 5522 5525 5528 5529 5528 5529 5528 5525 5523 5520 5518 5514 5509 5503 5497 5490 5481 5473 5463 5453 5444 5433 5421 5408 5396
5392 5401 5410 5420 5429 5439 5448 5456 5463 5471 5477 5483 5489 5494 5499 5504 5508 5512 5515 5519 5521 5521 5522 5522 5521 5520 5518 5516 5514 5509 5506 5501 5494 5487 5480 5473 5464 5455 5447 5436 5425 5413 5401 5388
5398 5409 5419 5429 5437 5444 5451 5458 5465 5471 5476 5481 5486 5490 5495 5501 5505 5510 5511 5513 5514 5516 5516 5515 5515 5515 5512 5509 5505 5501 5497 5492 5485 5478 5472 5465 5457 5448 5438 5428 5417 5406 5393 5381